sat.trackr.live / text

‹ back to catalog

2024-173C

NORAD 61229 · 2024-173C

PAYLOAD ACTIVE UNKNOWN

§ Identity

Operator
Country
PRC
Launch date
2024-09-24
Launch site
YSLA
Launch vehicle
Mass (kg)
RCS (m²)

External: N2YO · Heavens-Above · Gunter

§ Orbital elements

Epoch: 2026-05-25T05:05:26.289312Z

Period
93.03 min
Inclination
97.3412°
Eccentricity
0.0011025
Mean motion
15.47872730 rev/d
Perigee alt
415.5 km
Apogee alt
430.4 km
Semi-major
6,801.1 km
B*
6.2289e-4
RAAN
227.4724°
Arg perigee
217.0885°
Mean anomaly
142.9604°
Rev number
9,317

§ Raw data

2024-173C1 61229U 24173C   26145.21210983  .00032478  00000+0  62289-3 0  99942 61229  97.3412 227.4724 0011025 217.0885 142.9604 15.47872730 93176

JSON: /api/v1/satellites/61229 · /tle

For live sub-satellite position, see the globe view (requires WebGL).

§ Visibility from observer

Set your observer location to see the next 7 days of passes ≥ 10°. The values pass through the URL so the page stays shareable.

No JS? Fill the form by hand. The geolocation button needs JavaScript.